Location: São Paulo
(23.5507°S, 46.6334°W)
Time: 07:58:28
(UTC-03:00)

Explorer 7 - Pass Details

Date: 23 February 2026
Orbit: 430 x 541 km, 50.2° (Epoch: 11 March)

Event Time Altitude Azimuth Distance (km) Brightness Sun altitude
Rises 09:18:49 0° 240° (WSW) 2,517 9.8 44.7°
Reaches altitude 10° 09:21:24 10° 257° (WSW) 1,610 8.9 45.3°
Maximum altitude 09:24:08 20° 306° (NW) 1,099 8.3 45.9°
Drops below altitude 10° 09:26:46 10° 355° (N) 1,556 9.3 46.5°
Sets 09:29:14 0° 13° (NNE) 2,402 10.3 47.0°
